Погода в Новаре

Италия     45°26′06″N   8°36′41″E
темп.,
°C
ветер,
м/с
пор.,
м/с
влажн.,
%
обл.,
%
осадки,
мм/ч
давл.,
гПа
погр.,
м
22 сентября, ср
ср2223:00+15с22780 0.0 102419
02:00+14ссв23811 0.0 102440
05:00+13ссв22852 0.0 102328
08:00+13ссв248228 0.0 102483
11:00+19в226392 0.0 1023507
14:00+22ююв115828 0.0 10211077
17:00+22юв115897 0.0 10201020
20:00+17юв117295 0.0 102112
23 сентября, чт
чт2323:00+16ссв237928 0.0 102343
02:00+15св348145 0.0 102485
05:00+16св237792 0.0 102496
08:00+16в1278100 0.0 102465
11:00+18юв116899 0.0 1024583
14:00+21ю1158100 0.0 10221056
17:00+21зюз11555 0.0 10201025
20:00+17сз117129 0.0 102011
24 сентября, пт
пт2423:00+15ссз22805 0.0 102019
02:00+14с22850 0.0 101920
05:00+13с22870 0.0 101818
08:00+14ссз11850 0.0 101925
11:00+19юз11650 0.0 1019478
14:00+22ююз22550 0.0 1018930
17:00+23ю11530 0.0 1016965
20:00+19св11690 0.0 101811
25 сентября, сб
сб2523:00+16с22823 0.0 102013
02:00+15ссв228865 0.0 102034
05:00+15ссв228734 0.0 102033
08:00+15ссв238373 0.0 102172
11:00+20всв226660 0.0 1022504
14:00+23юв21570 0.0 10211060
17:00+24юв115511 0.0 10201213
20:00+19ю01705 0.0 102011
26 сентября, вс
вс2623:00+18с2286100 0.8 102137
02:00+18ссв2288100 2.1 102157
05:00+17ссв1187100 1.0 102116
08:00+18всв0087100 1.1 102116
11:00+18ссв1185100 0.8 1021146
14:00+19ю1188100 2.3 1020193
17:00+18в0194100 1.7 101870
20:00+18с1196100 2.8 101819